Time,TemperatureF,DewpointF,PressureIn,WindDirection,WindDirectionDegrees,WindSpeedMPH,WindSpeedGustMPH,Humidity,HourlyPrecipIn,Conditions,Clouds,dailyrainin,SoftwareType,DateUTC
2013-06-13 00:01:00,75.8,73.6,30.01,NW,318,0.0,0.0,93,0.00,RA,OVC,0.00,WeatherDisplay:10.37,2013-06-13 04:01:00,
2013-06-13 00:06:00,75.8,73.6,30.01,NW,318,0.0,0.0,93,0.00,RA,OVC,0.00,WeatherDisplay:10.37,2013-06-13 04:06:00,
2013-06-13 00:11:00,75.6,73.4,30.01,NW,318,0.0,0.0,93,0.00,SCT,OVC,0.00,WeatherDisplay:10.37,2013-06-13 04:11:00,
2013-06-13 00:16:00,75.6,73.4,30.01,NW,318,0.0,0.0,93,0.00,SCT,OVC,0.00,WeatherDisplay:10.37,2013-06-13 04:16:00,
2013-06-13 00:21:00,75.8,73.6,30.01,NW,318,0.0,0.0,93,0.00,SCT,OVC,0.00,WeatherDisplay:10.37,2013-06-13 04:21:00,
2013-06-13 00:26:00,76.0,73.8,30.01,NW,318,0.0,0.0,93,0.00,SCT,OVC,0.00,WeatherDisplay:10.37,2013-06-13 04:26:00,
2013-06-13 00:31:00,76.0,74.1,30.00,NW,318,0.0,0.0,94,0.00,SCT,OVC,0.00,WeatherDisplay:10.37,2013-06-13 04:31:00,
2013-06-13 00:36:00,75.8,73.9,30.00,NW,318,0.0,0.0,94,0.00,SCT,OVC,0.00,WeatherDisplay:10.37,2013-06-13 04:36:00,
2013-06-13 00:41:00,75.8,73.6,30.00,NW,318,0.0,0.0,93,0.00,SCT,OVC,0.00,WeatherDisplay:10.37,2013-06-13 04:41:00,
2013-06-13 00:46:00,75.6,73.8,30.00,NW,318,0.0,0.0,94,0.00,SCT,OVC,0.00,WeatherDisplay:10.37,2013-06-13 04:46:00,
2013-06-13 00:51:00,75.6,73.8,30.00,NW,318,0.0,0.0,94,0.00,SCT,OVC,0.00,WeatherDisplay:10.37,2013-06-13 04:51:00,
2013-06-13 00:56:00,75.6,73.8,30.00,NW,318,0.0,0.0,94,0.00,SCT,OVC,0.00,WeatherDisplay:10.37,2013-06-13 04:56:00,
2013-06-13 01:01:00,75.6,73.8,29.99,NW,318,0.0,0.0,94,0.00,SCT,OVC,0.00,WeatherDisplay:10.37,2013-06-13 05:01:00,
2013-06-13 01:06:00,75.6,73.8,29.99,NW,318,0.0,0.0,94,0.00,SCT,OVC,0.00,WeatherDisplay:10.37,2013-06-13 05:06:00,
2013-06-13 01:11:00,75.6,73.8,29.99,NW,318,0.0,0.0,94,0.00,SCT,OVC,0.00,WeatherDisplay:10.37,2013-06-13 05:11:00,
2013-06-13 01:16:00,75.6,73.8,29.99,NW,318,0.0,0.0,94,0.00,SCT,OVC,0.00,WeatherDisplay:10.37,2013-06-13 05:16:00,
2013-06-13 01:21:00,75.4,73.6,29.99,NW,318,0.0,0.0,94,0.00,SCT,OVC,0.00,WeatherDisplay:10.37,2013-06-13 05:21:00,
2013-06-13 01:26:00,75.4,73.6,29.99,NW,318,0.0,0.0,94,0.00,SCT,OVC,0.00,WeatherDisplay:10.37,2013-06-13 05:26:00,
2013-06-13 01:31:00,75.3,73.5,29.99,NW,318,0.0,0.0,94,0.00,SCT,OVC,0.00,WeatherDisplay:10.37,2013-06-13 05:31:00,
2013-06-13 01:36:00,75.3,73.5,29.99,NW,318,0.0,0.0,94,0.00,SCT,OVC,0.00,WeatherDisplay:10.37,2013-06-13 05:36:00,
2013-06-13 01:41:00,75.1,73.3,29.99,NW,318,0.0,0.0,94,0.00,SCT,OVC,0.00,WeatherDisplay:10.37,2013-06-13 05:41:00,
2013-06-13 01:46:00,75.1,73.3,29.99,NW,318,0.0,0.0,94,0.00,SCT,OVC,0.00,WeatherDisplay:10.37,2013-06-13 05:46:00,
2013-06-13 01:51:00,75.1,73.3,29.99,NW,318,0.0,0.0,94,0.00,SCT,OVC,0.00,WeatherDisplay:10.37,2013-06-13 05:51:00,
2013-06-13 01:56:00,75.1,73.3,29.99,NW,318,0.0,0.0,94,0.00,SCT,OVC,0.00,WeatherDisplay:10.37,2013-06-13 05:56:00,
2013-06-13 02:01:00,75.1,73.3,29.98,NW,318,0.0,0.0,94,0.00,SCT,OVC,0.00,WeatherDisplay:10.37,2013-06-13 06:01:00,
2013-06-13 02:06:00,75.1,73.3,29.98,NW,318,0.0,0.0,94,0.00,SCT,OVC,0.00,WeatherDisplay:10.37,2013-06-13 06:06:00,
2013-06-13 02:11:00,74.9,73.1,29.98,NW,318,0.0,0.0,94,0.00,SCT,OVC,0.00,WeatherDisplay:10.37,2013-06-13 06:11:00,
2013-06-13 02:16:00,74.9,73.1,29.98,NW,318,0.0,0.0,94,0.00,SCT,OVC,0.00,WeatherDisplay:10.37,2013-06-13 06:16:00,
2013-06-13 02:21:00,74.7,72.9,29.98,NW,318,0.0,0.0,94,0.00,SCT,OVC,0.00,WeatherDisplay:10.37,2013-06-13 06:21:00,
2013-06-13 02:26:00,74.6,72.8,29.98,NW,318,0.0,0.0,94,0.00,SCT,OVC,0.00,WeatherDisplay:10.37,2013-06-13 06:26:00,
2013-06-13 02:31:00,74.7,72.9,29.98,NW,318,0.0,0.0,94,0.00,SCT,OVC,0.00,WeatherDisplay:10.37,2013-06-13 06:31:00,
2013-06-13 02:36:00,74.6,72.8,29.98,NW,318,0.0,0.0,94,0.00,SCT,OVC,0.00,WeatherDisplay:10.37,2013-06-13 06:36:00,
2013-06-13 02:41:00,74.6,73.1,29.98,NW,318,0.0,0.0,95,0.00,SCT,OVC,0.00,WeatherDisplay:10.37,2013-06-13 06:41:00,
2013-06-13 02:46:00,74.6,73.1,29.98,NW,318,0.0,0.0,95,0.00,SCT,OVC,0.00,WeatherDisplay:10.37,2013-06-13 06:46:00,
2013-06-13 02:51:00,74.6,72.8,29.98,NW,318,0.0,0.0,94,0.00,SCT,OVC,0.00,WeatherDisplay:10.37,2013-06-13 06:51:00,
2013-06-13 02:56:00,74.6,73.1,29.98,NW,318,0.0,0.0,95,0.00,SCT,OVC,0.00,WeatherDisplay:10.37,2013-06-13 06:56:00,
2013-06-13 03:01:00,74.4,72.9,29.98,NW,318,0.0,0.0,95,0.00,SCT,OVC,0.00,WeatherDisplay:10.37,2013-06-13 07:01:00,
2013-06-13 03:06:00,74.4,72.9,29.98,NW,318,0.0,0.0,95,0.00,SCT,OVC,0.00,WeatherDisplay:10.37,2013-06-13 07:06:00,
2013-06-13 03:11:00,74.4,72.9,29.98,NW,318,0.0,0.0,95,0.00,SCT,OVC,0.00,WeatherDisplay:10.37,2013-06-13 07:11:00,
2013-06-13 03:16:00,74.2,72.7,29.98,NW,318,0.0,0.0,95,0.00,SCT,OVC,0.00,WeatherDisplay:10.37,2013-06-13 07:16:00,
2013-06-13 03:21:00,74.2,72.7,29.98,NW,318,0.0,0.0,95,0.00,SCT,OVC,0.00,WeatherDisplay:10.37,2013-06-13 07:21:00,
2013-06-13 03:26:00,74.0,72.5,29.98,NW,318,0.0,0.0,95,0.00,SCT,OVC,0.00,WeatherDisplay:10.37,2013-06-13 07:26:00,
2013-06-13 03:31:00,74.2,72.7,29.98,NW,318,0.0,0.0,95,0.00,SCT,OVC,0.00,WeatherDisplay:10.37,2013-06-13 07:31:00,
2013-06-13 03:36:00,74.2,72.7,29.98,NW,318,0.0,0.0,95,0.00,SCT,OVC,0.00,WeatherDisplay:10.37,2013-06-13 07:36:00,
2013-06-13 03:41:00,74.2,72.7,29.98,NW,318,0.0,0.0,95,0.00,SCT,OVC,0.00,WeatherDisplay:10.37,2013-06-13 07:41:00,
2013-06-13 03:46:00,74.2,72.7,29.98,NW,318,0.0,0.0,95,0.00,SCT,OVC,0.00,WeatherDisplay:10.37,2013-06-13 07:46:00,
2013-06-13 03:51:00,74.4,72.9,29.98,NW,318,0.0,0.0,95,0.00,SCT,OVC,0.00,WeatherDisplay:10.37,2013-06-13 07:51:00,
2013-06-13 03:56:00,74.6,73.1,29.98,NW,318,0.0,0.0,95,0.00,SCT,OVC,0.00,WeatherDisplay:10.37,2013-06-13 07:56:00,
2013-06-13 04:01:00,74.6,73.1,29.98,NW,318,0.0,0.0,95,0.00,SCT,OVC,0.00,WeatherDisplay:10.37,2013-06-13 08:01:00,
2013-06-13 04:07:00,74.4,72.9,29.98,NW,318,0.0,0.0,95,0.00,SCT,OVC,0.00,WeatherDisplay:10.37,2013-06-13 08:07:00,
2013-06-13 04:12:00,74.4,72.9,29.98,NW,318,0.0,0.0,95,0.00,SCT,OVC,0.00,WeatherDisplay:10.37,2013-06-13 08:12:00,
2013-06-13 04:17:00,74.2,72.7,29.98,NW,318,0.0,0.0,95,0.00,SCT,OVC,0.00,WeatherDisplay:10.37,2013-06-13 08:17:00,
2013-06-13 04:22:00,74.4,72.9,29.98,NW,318,0.0,0.0,95,0.00,SCT,OVC,0.00,WeatherDisplay:10.37,2013-06-13 08:22:00,
2013-06-13 04:27:00,74.2,72.7,29.98,NW,318,0.0,0.0,95,0.00,SCT,OVC,0.00,WeatherDisplay:10.37,2013-06-13 08:27:00,
2013-06-13 04:32:00,74.2,72.7,29.98,NW,318,0.0,0.0,95,0.00,SCT,OVC,0.00,WeatherDisplay:10.37,2013-06-13 08:32:00,
2013-06-13 04:37:00,74.2,72.7,29.98,NW,318,0.0,0.0,95,0.00,SCT,OVC,0.00,WeatherDisplay:10.37,2013-06-13 08:37:00,
2013-06-13 04:42:00,74.0,72.5,29.98,NW,318,0.0,0.0,95,0.00,SCT,OVC,0.00,WeatherDisplay:10.37,2013-06-13 08:42:00,
2013-06-13 04:47:00,74.0,72.5,29.98,NW,318,0.0,0.0,95,0.00,SCT,OVC,0.00,WeatherDisplay:10.37,2013-06-13 08:47:00,
2013-06-13 04:52:00,74.0,72.5,29.98,NW,318,0.0,0.0,95,0.00,SCT,OVC,0.00,WeatherDisplay:10.37,2013-06-13 08:52:00,
2013-06-13 04:57:00,74.0,72.5,29.98,NW,318,0.0,0.0,95,0.00,SCT,OVC,0.00,WeatherDisplay:10.37,2013-06-13 08:57:00,
2013-06-13 05:02:00,74.4,73.2,29.98,NW,318,0.0,0.0,96,0.00,SCT,OVC,0.00,WeatherDisplay:10.37,2013-06-13 09:02:00,
2013-06-13 05:07:00,74.6,73.4,29.98,NW,318,0.0,0.0,96,0.00,SCT,OVC,0.00,WeatherDisplay:10.37,2013-06-13 09:07:00,
2013-06-13 05:12:00,74.6,73.4,29.98,NW,318,0.0,0.0,96,0.00,SCT,OVC,0.00,WeatherDisplay:10.37,2013-06-13 09:12:00,
2013-06-13 05:17:00,74.4,73.2,29.97,NW,318,0.0,0.0,96,0.00,SCT,OVC,0.00,WeatherDisplay:10.37,2013-06-13 09:17:00,
2013-06-13 05:22:00,74.4,73.2,29.97,NW,318,0.0,0.0,96,0.00,SCT,OVC,0.00,WeatherDisplay:10.37,2013-06-13 09:22:00,
2013-06-13 05:27:00,74.2,73.0,29.97,NW,318,0.0,0.0,96,0.00,SCT,OVC,0.00,WeatherDisplay:10.37,2013-06-13 09:27:00,
2013-06-13 05:32:00,74.4,73.2,29.97,NW,318,0.0,0.0,96,0.00,SCT,OVC,0.00,WeatherDisplay:10.37,2013-06-13 09:32:00,
2013-06-13 05:37:00,74.4,73.2,29.97,NW,318,0.0,0.0,96,0.00,SCT,OVC,0.00,WeatherDisplay:10.37,2013-06-13 09:37:00,
2013-06-13 05:42:00,74.2,73.0,29.97,NW,318,0.0,0.0,96,0.00,SCT,OVC,0.00,WeatherDisplay:10.37,2013-06-13 09:42:00,
2013-06-13 05:47:00,74.4,73.2,29.96,NW,318,0.0,0.0,96,0.00,SCT,OVC,0.00,WeatherDisplay:10.37,2013-06-13 09:47:00,
2013-06-13 05:52:00,74.4,73.2,29.96,NW,318,0.0,0.0,96,0.00,SCT,OVC,0.00,WeatherDisplay:10.37,2013-06-13 09:52:00,
2013-06-13 05:57:00,74.4,73.2,29.96,NW,318,0.0,0.0,96,0.00,SCT,OVC,0.00,WeatherDisplay:10.37,2013-06-13 09:57:00,
2013-06-13 06:02:00,74.4,73.2,29.97,NW,318,0.0,0.0,96,0.00,SCT,OVC,0.00,WeatherDisplay:10.37,2013-06-13 10:02:00,
2013-06-13 06:07:00,74.4,73.2,29.97,NW,318,0.0,0.0,96,0.00,SCT,OVC,0.00,WeatherDisplay:10.37,2013-06-13 10:07:00,
2013-06-13 06:12:00,74.4,73.2,29.97,NW,318,0.0,0.0,96,0.00,SCT,OVC,0.00,WeatherDisplay:10.37,2013-06-13 10:12:00,
2013-06-13 06:17:00,74.4,73.2,29.97,NW,318,0.0,0.0,96,0.00,SCT,OVC,0.00,WeatherDisplay:10.37,2013-06-13 10:17:00,
2013-06-13 06:22:00,74.4,73.2,29.97,NW,318,0.0,0.0,96,0.00,SCT,OVC,0.00,WeatherDisplay:10.37,2013-06-13 10:22:00,
2013-06-13 06:27:00,74.4,73.2,29.97,NW,318,0.0,0.0,96,0.00,SCT,OVC,0.00,WeatherDisplay:10.37,2013-06-13 10:27:00,
2013-06-13 06:32:00,74.4,73.2,29.98,NW,318,0.0,0.0,96,0.00,SCT,OVC,0.00,WeatherDisplay:10.37,2013-06-13 10:32:00,
2013-06-13 06:37:00,74.4,73.2,29.98,NW,318,0.0,0.0,96,0.00,SCT,OVC,0.00,WeatherDisplay:10.37,2013-06-13 10:37:00,
2013-06-13 06:42:00,74.4,73.2,29.98,NW,318,0.0,0.0,96,0.00,SCT,OVC,0.00,WeatherDisplay:10.37,2013-06-13 10:42:00,
2013-06-13 06:47:00,74.4,73.2,29.98,NW,318,0.0,0.0,96,0.00,SCT,OVC,0.00,WeatherDisplay:10.37,2013-06-13 10:47:00,
2013-06-13 06:52:00,74.6,73.4,29.98,NW,318,0.0,0.0,96,0.00,SCT,OVC,0.00,WeatherDisplay:10.37,2013-06-13 10:52:00,
2013-06-13 06:57:00,74.7,73.5,29.98,NW,318,0.0,0.0,96,0.00,SCT,OVC,0.00,WeatherDisplay:10.37,2013-06-13 10:57:00,
2013-06-13 07:02:00,74.9,73.7,29.98,NW,318,0.0,0.0,96,0.00,SCT,OVC,0.00,WeatherDisplay:10.37,2013-06-13 11:02:00,
2013-06-13 07:07:00,75.1,73.9,29.98,NW,318,0.0,0.0,96,0.00,SCT,OVC,0.00,WeatherDisplay:10.37,2013-06-13 11:07:00,
2013-06-13 07:12:00,74.9,73.7,29.98,NW,318,0.0,0.0,96,0.00,SCT,OVC,0.00,WeatherDisplay:10.37,2013-06-13 11:12:00,
2013-06-13 07:17:00,75.3,74.1,29.98,NW,318,0.0,0.0,96,0.00,SCT,OVC,0.00,WeatherDisplay:10.37,2013-06-13 11:17:00,
2013-06-13 07:22:00,75.4,74.2,29.98,NW,318,0.0,0.0,96,0.00,SCT,OVC,0.00,WeatherDisplay:10.37,2013-06-13 11:22:00,
2013-06-13 07:27:00,75.4,74.2,29.98,NW,318,0.0,0.0,96,0.00,SCT,OVC,0.00,WeatherDisplay:10.37,2013-06-13 11:27:00,
2013-06-13 07:32:00,75.6,74.4,29.98,NW,318,0.0,0.0,96,0.00,SCT,OVC,0.00,WeatherDisplay:10.37,2013-06-13 11:32:00,
2013-06-13 07:37:00,75.8,74.6,29.98,NW,318,0.0,0.0,96,0.00,SCT,OVC,0.00,WeatherDisplay:10.37,2013-06-13 11:37:00,
2013-06-13 07:42:00,76.1,74.9,29.98,NW,318,0.0,0.0,96,0.00,SCT,OVC,0.00,WeatherDisplay:10.37,2013-06-13 11:42:00,
2013-06-13 07:47:00,76.3,75.1,29.99,NW,318,0.0,0.0,96,0.00,SCT,OVC,0.00,WeatherDisplay:10.37,2013-06-13 11:47:00,
2013-06-13 07:52:00,76.7,75.5,29.99,NW,318,0.0,0.0,96,0.00,SCT,OVC,0.00,WeatherDisplay:10.37,2013-06-13 11:52:00,
2013-06-13 07:57:00,77.0,75.8,29.99,NW,318,0.0,0.0,96,0.00,SCT,OVC,0.00,WeatherDisplay:10.37,2013-06-13 11:57:00,
2013-06-13 08:02:00,77.2,76.0,29.99,NW,318,0.0,0.0,96,0.00,SCT,OVC,0.00,WeatherDisplay:10.37,2013-06-13 12:02:00,
2013-06-13 08:07:00,77.4,76.2,29.99,NW,318,0.0,0.0,96,0.00,SCT,OVC,0.00,WeatherDisplay:10.37,2013-06-13 12:07:00,
2013-06-13 08:12:00,77.4,76.2,29.99,NW,318,0.0,0.0,96,0.00,SCT,OVC,0.00,WeatherDisplay:10.37,2013-06-13 12:12:00,
2013-06-13 08:17:00,77.2,76.0,29.99,NW,318,0.0,0.0,96,0.00,SCT,OVC,0.00,WeatherDisplay:10.37,2013-06-13 12:17:00,
2013-06-13 08:22:00,77.4,76.2,29.99,NW,318,0.0,0.0,96,0.00,SCT,OVC,0.00,WeatherDisplay:10.37,2013-06-13 12:22:00,
2013-06-13 08:27:00,77.7,76.5,29.99,NW,318,0.0,0.0,96,0.00,SCT,OVC,0.00,WeatherDisplay:10.37,2013-06-13 12:27:00,
2013-06-13 08:32:00,77.7,76.5,30.00,NW,318,0.0,0.0,96,0.00,SCT,OVC,0.00,WeatherDisplay:10.37,2013-06-13 12:32:00,
2013-06-13 08:37:00,77.9,76.7,30.00,NW,318,0.0,0.0,96,0.00,SCT,OVC,0.00,WeatherDisplay:10.37,2013-06-13 12:37:00,
2013-06-13 08:42:00,78.3,77.1,30.00,NW,318,0.0,0.0,96,0.00,SCT,OVC,0.00,WeatherDisplay:10.37,2013-06-13 12:42:00,
2013-06-13 08:47:00,78.6,77.4,30.00,NW,318,0.0,0.0,96,0.00,SCT,OVC,0.00,WeatherDisplay:10.37,2013-06-13 12:47:00,
2013-06-13 08:52:00,78.8,77.2,30.00,NW,318,0.0,0.0,95,0.00,SCT,OVC,0.00,WeatherDisplay:10.37,2013-06-13 12:52:00,
2013-06-13 08:57:00,79.2,77.6,30.00,NW,319,0.0,0.0,95,0.00,SCT,OVC,0.00,WeatherDisplay:10.37,2013-06-13 12:57:00,
2013-06-13 09:02:00,79.8,78.2,30.01,NW,318,0.0,0.0,95,0.00,SCT,OVC,0.00,WeatherDisplay:10.37,2013-06-13 13:02:00,
2013-06-13 09:07:00,79.8,77.9,30.01,West,269,0.0,0.0,94,0.00,SCT,OVC,0.00,WeatherDisplay:10.37,2013-06-13 13:07:00,
2013-06-13 09:12:00,80.1,77.9,30.01,WSW,246,0.0,0.0,93,0.00,SCT,OVC,0.00,WeatherDisplay:10.37,2013-06-13 13:12:00,
2013-06-13 09:17:00,80.3,77.4,30.01,WSW,245,0.0,0.0,91,0.00,SCT,OVC,0.00,WeatherDisplay:10.37,2013-06-13 13:17:00,
2013-06-13 09:22:00,80.7,76.5,30.01,WSW,245,0.0,0.0,87,0.00,SCT,OVC,0.00,WeatherDisplay:10.37,2013-06-13 13:22:00,
2013-06-13 09:27:00,81.2,76.3,30.01,WSW,246,0.0,0.0,85,0.00,SCT,OVC,0.00,WeatherDisplay:10.37,2013-06-13 13:27:00,
2013-06-13 09:32:00,81.2,75.5,30.01,WSW,246,0.0,0.0,83,0.00,SCT,OVC,0.00,WeatherDisplay:10.37,2013-06-13 13:32:00,
2013-06-13 09:37:00,81.4,75.4,30.01,WSW,246,0.0,0.0,82,0.00,SCT,OVC,0.00,WeatherDisplay:10.37,2013-06-13 13:37:00,
2013-06-13 09:42:00,81.8,75.0,30.01,SW,232,0.0,0.0,80,0.00,SCT,OVC,0.00,WeatherDisplay:10.37,2013-06-13 13:42:00,
2013-06-13 09:47:00,82.0,74.5,30.01,SW,225,0.0,0.0,78,0.00,SCT,OVC,0.00,WeatherDisplay:10.37,2013-06-13 13:47:00,
2013-06-13 09:52:00,82.6,74.3,30.01,SW,225,0.0,0.0,76,0.00,SCT,OVC,0.00,WeatherDisplay:10.37,2013-06-13 13:52:00,
2013-06-13 09:57:00,82.8,74.1,30.01,South,169,0.0,0.0,75,0.00,SCT,OVC,0.00,WeatherDisplay:10.37,2013-06-13 13:57:00,
2013-06-13 10:02:00,83.8,75.8,30.01,SSE,167,0.0,0.0,77,0.00,SCT,OVC,0.00,WeatherDisplay:10.37,2013-06-13 14:02:00,
2013-06-13 10:08:00,84.3,75.1,30.01,SSE,160,0.0,0.0,74,0.00,SCT,OVC,0.00,WeatherDisplay:10.37,2013-06-13 14:08:00,
2013-06-13 10:13:00,84.3,75.1,30.01,SSE,160,0.0,0.0,74,0.00,SCT,OVC,0.00,WeatherDisplay:10.37,2013-06-13 14:13:00,
2013-06-13 10:18:00,84.3,75.5,30.02,SSE,165,0.0,0.0,75,0.00,SCT,OVC,0.00,WeatherDisplay:10.37,2013-06-13 14:18:00,
2013-06-13 10:23:00,84.1,74.9,30.02,South,184,0.0,0.0,74,0.00,SCT,OVC,0.00,WeatherDisplay:10.37,2013-06-13 14:23:00,
2013-06-13 10:28:00,84.3,75.1,30.02,South,184,0.0,0.0,74,0.00,SCT,OVC,0.00,WeatherDisplay:10.37,2013-06-13 14:28:00,
2013-06-13 10:33:00,84.5,75.7,30.02,South,185,0.0,0.0,75,0.00,SCT,OVC,0.00,WeatherDisplay:10.37,2013-06-13 14:33:00,
2013-06-13 10:38:00,85.3,75.2,30.02,South,186,0.0,0.0,72,0.00,SCT,OVC,0.00,WeatherDisplay:10.37,2013-06-13 14:38:00,
2013-06-13 10:43:00,85.5,73.7,30.02,South,185,0.0,0.0,68,0.00,SCT,OVC,0.00,WeatherDisplay:10.37,2013-06-13 14:43:00,
2013-06-13 10:48:00,85.5,73.7,30.01,South,186,0.0,0.0,68,0.00,SCT,OVC,0.00,WeatherDisplay:10.37,2013-06-13 14:48:00,
2013-06-13 10:53:00,85.5,73.3,30.01,SSW,203,0.0,0.0,67,0.00,SCT,OVC,0.00,WeatherDisplay:10.37,2013-06-13 14:53:00,
2013-06-13 10:58:00,85.1,72.9,30.01,SSW,211,0.0,0.0,67,0.00,SCT,OVC,0.00,WeatherDisplay:10.37,2013-06-13 14:58:00,
2013-06-13 11:03:00,84.5,72.3,30.01,South,184,0.0,0.0,67,0.00,SCT,OVC,0.00,WeatherDisplay:10.37,2013-06-13 15:03:00,
2013-06-13 11:08:00,83.8,72.1,30.01,South,178,0.0,0.0,68,0.00,SCT,OVC,0.00,WeatherDisplay:10.37,2013-06-13 15:08:00,
2013-06-13 11:13:00,83.4,72.2,30.01,South,183,0.0,0.0,69,0.00,SCT,OVC,0.00,WeatherDisplay:10.37,2013-06-13 15:13:00,
2013-06-13 11:18:00,83.2,72.4,30.01,South,188,3.5,3.5,70,0.00,SCT,OVC,0.00,WeatherDisplay:10.37,2013-06-13 15:18:00,
2013-06-13 11:23:00,83.2,72.8,30.01,South,186,0.0,0.0,71,0.00,SCT,OVC,0.00,WeatherDisplay:10.37,2013-06-13 15:23:00,
2013-06-13 11:28:00,83.2,73.2,30.01,South,186,0.0,0.0,72,0.00,SCT,OVC,0.00,WeatherDisplay:10.37,2013-06-13 15:28:00,
2013-06-13 11:33:00,83.4,74.2,30.01,South,178,0.0,0.0,74,0.00,SCT,OVC,0.00,WeatherDisplay:10.37,2013-06-13 15:33:00,
2013-06-13 11:38:00,83.2,74.0,30.01,SSE,148,4.6,4.6,74,0.00,SCT,OVC,0.00,WeatherDisplay:10.37,2013-06-13 15:38:00,
2013-06-13 11:43:00,83.0,74.6,30.01,SSE,148,0.0,0.0,76,0.01,RA,OVC,0.01,WeatherDisplay:10.37,2013-06-13 15:43:00,
2013-06-13 11:48:00,82.8,74.8,30.02,SSE,148,0.0,0.0,77,0.02,RA,OVC,0.02,WeatherDisplay:10.37,2013-06-13 15:48:00,
2013-06-13 11:53:00,82.4,75.2,30.02,ENE,62,3.5,3.5,79,0.03,RA,OVC,0.03,WeatherDisplay:10.37,2013-06-13 15:53:00,
2013-06-13 11:58:00,81.8,75.4,30.02,ENE,63,0.0,0.0,81,0.04,RA,OVC,0.04,WeatherDisplay:10.37,2013-06-13 15:58:00,
2013-06-13 12:03:00,81.4,75.7,30.02,ENE,64,0.0,0.0,83,0.04,RA,OVC,0.04,WeatherDisplay:10.37,2013-06-13 16:03:00,
2013-06-13 12:08:00,81.6,76.6,30.02,ENE,64,0.0,0.0,85,0.04,SCT,OVC,0.04,WeatherDisplay:10.37,2013-06-13 16:08:00,
2013-06-13 12:13:00,81.8,76.8,30.02,ENE,64,0.0,0.0,85,0.04,SCT,OVC,0.04,WeatherDisplay:10.37,2013-06-13 16:13:00,
2013-06-13 12:18:00,81.6,76.6,30.02,ENE,63,0.0,0.0,85,0.04,SCT,OVC,0.04,WeatherDisplay:10.37,2013-06-13 16:18:00,
2013-06-13 12:23:00,81.6,77.0,30.02,ENE,64,0.0,0.0,86,0.04,SCT,OVC,0.04,WeatherDisplay:10.37,2013-06-13 16:23:00,
2013-06-13 12:28:00,80.5,74.5,30.02,South,183,11.5,11.5,82,0.04,SCT,OVC,0.04,WeatherDisplay:10.37,2013-06-13 16:28:00,
2013-06-13 12:33:00,79.4,72.3,30.03,South,186,20.7,20.7,79,0.04,SCT,OVC,0.04,WeatherDisplay:10.37,2013-06-13 16:33:00,
2013-06-13 12:38:00,78.6,71.5,30.03,South,180,18.4,18.4,79,0.04,SCT,OVC,0.04,WeatherDisplay:10.37,2013-06-13 16:38:00,
2013-06-13 12:43:00,78.1,71.1,30.03,South,178,10.4,10.4,79,0.03,SCT,OVC,0.04,WeatherDisplay:10.37,2013-06-13 16:43:00,
2013-06-13 12:48:00,77.7,69.5,30.02,South,190,5.8,5.8,76,0.02,SCT,OVC,0.04,WeatherDisplay:10.37,2013-06-13 16:48:00,
2013-06-13 12:53:00,77.6,68.7,30.02,South,179,0.0,0.0,74,0.01,SCT,OVC,0.04,WeatherDisplay:10.37,2013-06-13 16:53:00,
2013-06-13 12:58:00,77.6,68.7,30.02,South,182,0.0,0.0,74,0.00,SCT,OVC,0.04,WeatherDisplay:10.37,2013-06-13 16:58:00,
2013-06-13 13:03:00,77.4,68.5,30.01,South,186,0.0,0.0,74,0.00,SCT,OVC,0.04,WeatherDisplay:10.37,2013-06-13 17:03:00,
2013-06-13 13:08:00,77.6,68.7,30.01,South,190,0.0,0.0,74,0.00,SCT,OVC,0.04,WeatherDisplay:10.37,2013-06-13 17:08:00,
2013-06-13 13:13:00,77.7,69.5,30.01,South,190,0.0,0.0,76,0.00,SCT,OVC,0.04,WeatherDisplay:10.37,2013-06-13 17:13:00,
2013-06-13 13:18:00,77.6,69.0,30.01,South,190,0.0,0.0,75,0.00,SCT,OVC,0.04,WeatherDisplay:10.37,2013-06-13 17:18:00,
2013-06-13 13:23:00,77.7,68.4,30.01,South,190,0.0,0.0,73,0.00,SCT,OVC,0.04,WeatherDisplay:10.37,2013-06-13 17:23:00,
2013-06-13 13:28:00,78.1,68.7,30.01,South,190,0.0,0.0,73,0.00,SCT,OVC,0.04,WeatherDisplay:10.37,2013-06-13 17:28:00,
2013-06-13 13:33:00,78.5,69.5,30.00,South,190,0.0,0.0,74,0.00,SCT,OVC,0.04,WeatherDisplay:10.37,2013-06-13 17:33:00,
2013-06-13 13:38:00,79.0,69.6,30.00,South,190,0.0,0.0,73,0.00,SCT,OVC,0.04,WeatherDisplay:10.37,2013-06-13 17:38:00,
2013-06-13 13:43:00,79.6,67.7,30.00,South,190,0.0,0.0,67,0.00,SCT,OVC,0.04,WeatherDisplay:10.37,2013-06-13 17:43:00,
2013-06-13 13:48:00,80.7,67.8,30.00,SSW,192,0.0,0.0,65,0.00,SCT,OVC,0.04,WeatherDisplay:10.37,2013-06-13 17:48:00,
2013-06-13 13:53:00,82.2,70.1,30.00,SE,146,1.0,3.2,67,0.00,SCT,OVC,0.04,WeatherDisplay:10.37,2013-06-13 17:53:00,
2013-06-13 13:58:00,83.8,70.8,30.00,SSE,150,8.1,8.1,65,0.00,SCT,OVC,0.04,WeatherDisplay:10.37,2013-06-13 17:58:00,
2013-06-13 14:03:00,84.7,69.3,29.98,SSE,155,3.5,3.5,60,0.00,SCT,OVC,0.04,WeatherDisplay:10.37,2013-06-13 18:03:00,
2013-06-13 14:08:00,85.3,68.8,29.98,SSE,154,0.0,0.0,58,0.00,SCT,OVC,0.04,WeatherDisplay:10.37,2013-06-13 18:08:00,
2013-06-13 14:13:00,86.1,70.1,29.98,SSE,154,0.0,0.0,59,0.00,SCT,OVC,0.04,WeatherDisplay:10.37,2013-06-13 18:13:00,
2013-06-13 14:18:00,87.0,69.9,29.99,SSE,154,0.0,0.0,57,0.00,SCT,OVC,0.04,WeatherDisplay:10.37,2013-06-13 18:18:00,
2013-06-13 14:23:00,87.8,71.2,29.99,SW,215,11.5,0.0,58,0.00,SCT,OVC,0.04,WeatherDisplay:10.37,2013-06-13 18:23:00,
2013-06-13 14:28:00,88.0,70.3,29.99,WSW,244,0.0,0.0,56,0.00,SCT,OVC,0.04,WeatherDisplay:10.37,2013-06-13 18:28:00,
2013-06-13 14:33:00,87.8,69.6,29.99,WSW,244,0.0,0.0,55,0.00,SCT,OVC,0.04,WeatherDisplay:10.37,2013-06-13 18:33:00,
2013-06-13 14:38:00,88.2,71.0,29.99,WSW,244,0.0,0.0,57,0.00,SCT,OVC,0.04,WeatherDisplay:10.37,2013-06-13 18:38:00,
2013-06-13 14:43:00,88.6,70.9,29.99,WSW,243,0.0,0.0,56,0.00,SCT,OVC,0.04,WeatherDisplay:10.37,2013-06-13 18:43:00,
2013-06-13 14:48:00,88.2,69.5,29.97,SSW,210,1.2,1.2,54,0.00,SCT,OVC,0.04,WeatherDisplay:10.37,2013-06-13 18:48:00,
2013-06-13 14:53:00,88.6,71.4,29.97,SSW,210,0.0,0.0,57,0.00,SCT,OVC,0.04,WeatherDisplay:10.37,2013-06-13 18:53:00,
2013-06-13 14:58:00,89.3,71.0,29.97,WNW,291,0.0,0.0,55,0.00,SCT,OVC,0.04,WeatherDisplay:10.37,2013-06-13 18:58:00,
2013-06-13 15:28:00,90.3,69.7,29.96,West,259,4.6,0.0,51,0.00,SCT,OVC,0.04,WeatherDisplay:10.37,2013-06-13 19:28:00,
2013-06-13 15:33:00,89.9,71.0,29.96,SW,223,11.5,11.5,54,0.00,SCT,OVC,0.04,WeatherDisplay:10.37,2013-06-13 19:33:00,
2013-06-13 15:38:00,89.9,70.5,29.96,West,264,3.5,3.5,53,0.00,SCT,OVC,0.04,WeatherDisplay:10.37,2013-06-13 19:38:00,
2013-06-13 15:43:00,89.5,70.7,29.96,WNW,287,0.0,0.0,54,0.00,SCT,OVC,0.04,WeatherDisplay:10.37,2013-06-13 19:43:00,
2013-06-13 15:48:00,89.3,71.5,29.95,West,259,8.1,8.1,56,0.00,SCT,OVC,0.04,WeatherDisplay:10.37,2013-06-13 19:48:00,
2013-06-13 15:53:00,88.6,70.9,29.95,WSW,247,4.6,4.6,56,0.00,SCT,OVC,0.04,WeatherDisplay:10.37,2013-06-13 19:53:00,
2013-06-13 15:58:00,88.2,70.0,29.95,WSW,250,6.9,6.9,55,0.00,SCT,OVC,0.04,WeatherDisplay:10.37,2013-06-13 19:58:00,
2013-06-13 16:03:00,87.6,70.5,29.94,SW,225,11.5,11.5,57,0.00,SCT,OVC,0.04,WeatherDisplay:10.37,2013-06-13 20:03:00,
2013-06-13 16:08:00,87.2,70.6,29.94,SW,236,17.3,17.3,58,0.00,SCT,OVC,0.04,WeatherDisplay:10.37,2013-06-13 20:08:00,
2013-06-13 16:13:00,87.0,72.4,29.94,WNW,289,19.6,19.6,62,0.00,SCT,OVC,0.04,WeatherDisplay:10.37,2013-06-13 20:13:00,
2013-06-13 16:18:00,86.1,72.5,29.95,SW,228,25.3,25.3,64,0.00,SCT,OVC,0.04,WeatherDisplay:10.37,2013-06-13 20:18:00,
2013-06-13 16:23:00,85.3,72.6,29.95,SW,226,23.0,23.0,66,0.00,SCT,OVC,0.04,WeatherDisplay:10.37,2013-06-13 20:23:00,
2013-06-13 16:28:00,84.5,71.9,29.95,WSW,253,18.4,18.4,66,0.00,SCT,OVC,0.04,WeatherDisplay:10.37,2013-06-13 20:28:00,
2013-06-13 16:33:00,84.1,71.5,29.95,WSW,243,4.6,4.6,66,0.00,SCT,OVC,0.04,WeatherDisplay:10.37,2013-06-13 20:33:00,
2013-06-13 16:38:00,83.8,70.8,29.95,WSW,257,19.6,19.6,65,0.00,SCT,OVC,0.04,WeatherDisplay:10.37,2013-06-13 20:38:00,
2013-06-13 16:43:00,83.4,70.8,29.95,WSW,246,8.1,8.1,66,0.00,SCT,OVC,0.04,WeatherDisplay:10.37,2013-06-13 20:43:00,
2013-06-13 16:48:00,83.0,70.5,29.94,WSW,251,11.5,11.5,66,0.00,SCT,OVC,0.04,WeatherDisplay:10.37,2013-06-13 20:48:00,
2013-06-13 16:53:00,82.4,70.3,29.94,SW,234,13.8,13.8,67,0.00,SCT,OVC,0.04,WeatherDisplay:10.37,2013-06-13 20:53:00,
2013-06-13 16:58:00,82.0,70.4,29.94,SW,227,11.5,11.5,68,0.00,SCT,OVC,0.04,WeatherDisplay:10.37,2013-06-13 20:58:00,
2013-06-13 17:03:00,81.4,70.2,29.94,SW,234,11.5,11.5,69,0.00,SCT,OVC,0.04,WeatherDisplay:10.37,2013-06-13 21:03:00,
2013-06-13 17:08:00,81.1,70.4,29.94,SW,232,9.2,9.2,70,0.00,SCT,OVC,0.04,WeatherDisplay:10.37,2013-06-13 21:08:00,
2013-06-13 17:13:00,81.1,71.2,29.94,SW,233,0.0,0.0,72,0.00,SCT,OVC,0.04,WeatherDisplay:10.37,2013-06-13 21:13:00,
2013-06-13 17:18:00,80.9,71.8,29.93,SW,234,8.1,0.0,74,0.00,SCT,OVC,0.04,WeatherDisplay:10.37,2013-06-13 21:18:00,
2013-06-13 17:23:00,81.1,72.0,29.93,SW,234,0.0,0.0,74,0.00,SCT,OVC,0.04,WeatherDisplay:10.37,2013-06-13 21:23:00,
2013-06-13 17:28:00,81.1,72.0,29.93,WSW,245,0.0,0.0,74,0.00,SCT,OVC,0.04,WeatherDisplay:10.37,2013-06-13 21:28:00,
2013-06-13 17:33:00,81.1,71.6,29.92,SW,232,11.5,11.5,73,0.00,SCT,OVC,0.04,WeatherDisplay:10.37,2013-06-13 21:33:00,
2013-06-13 17:38:00,81.2,71.3,29.92,WSW,245,11.5,11.5,72,0.00,SCT,OVC,0.04,WeatherDisplay:10.37,2013-06-13 21:38:00,
2013-06-13 17:43:00,81.4,71.5,29.92,WSW,246,3.5,0.0,72,0.00,SCT,OVC,0.04,WeatherDisplay:10.37,2013-06-13 21:43:00,
2013-06-13 17:48:00,81.6,71.7,29.92,WSW,245,10.4,10.4,72,0.00,SCT,OVC,0.04,WeatherDisplay:10.37,2013-06-13 21:48:00,
2013-06-13 17:53:00,81.8,72.3,29.92,WSW,245,0.0,0.0,73,0.00,SCT,OVC,0.04,WeatherDisplay:10.37,2013-06-13 21:53:00,
2013-06-13 17:58:00,82.0,72.1,29.92,WSW,244,1.2,1.2,72,0.00,SCT,OVC,0.04,WeatherDisplay:10.37,2013-06-13 21:58:00,
2013-06-13 18:03:00,82.0,72.1,29.93,WSW,248,0.0,0.0,72,0.00,SCT,OVC,0.04,WeatherDisplay:10.37,2013-06-13 22:03:00,
2013-06-13 18:08:00,82.2,72.3,29.93,WNW,284,0.0,0.0,72,0.00,SCT,OVC,0.04,WeatherDisplay:10.37,2013-06-13 22:08:00,
2013-06-13 18:13:00,82.4,72.0,29.93,SW,232,0.0,0.0,71,0.00,SCT,OVC,0.04,WeatherDisplay:10.37,2013-06-13 22:13:00,
2013-06-13 18:18:00,82.4,72.0,29.93,West,260,11.5,11.5,71,0.00,SCT,OVC,0.04,WeatherDisplay:10.37,2013-06-13 22:18:00,
2013-06-13 18:23:00,82.4,72.5,29.93,West,259,6.9,6.9,72,0.00,SCT,OVC,0.04,WeatherDisplay:10.37,2013-06-13 22:23:00,
2013-06-13 18:28:00,82.2,72.7,29.93,West,259,6.0,6.0,73,0.00,SCT,OVC,0.04,WeatherDisplay:10.37,2013-06-13 22:28:00,
2013-06-13 18:33:00,82.2,72.7,29.92,West,259,0.0,0.0,73,0.00,SCT,OVC,0.04,WeatherDisplay:10.37,2013-06-13 22:33:00,
2013-06-13 18:38:00,82.2,72.3,29.92,West,259,0.0,0.0,72,0.00,SCT,OVC,0.04,WeatherDisplay:10.37,2013-06-13 22:38:00,
2013-06-13 18:43:00,82.2,72.3,29.92,West,259,0.0,0.0,72,0.00,SCT,OVC,0.04,WeatherDisplay:10.37,2013-06-13 22:43:00,
2013-06-13 18:48:00,82.4,72.5,29.92,West,259,0.0,0.0,72,0.00,SCT,OVC,0.04,WeatherDisplay:10.37,2013-06-13 22:48:00,
2013-06-13 18:53:00,82.4,72.9,29.92,West,259,0.0,0.0,73,0.00,SCT,OVC,0.04,WeatherDisplay:10.37,2013-06-13 22:53:00,
2013-06-13 18:58:00,82.4,72.9,29.92,West,265,0.0,0.0,73,0.00,SCT,OVC,0.04,WeatherDisplay:10.37,2013-06-13 22:58:00,
2013-06-13 19:03:00,82.4,72.9,29.93,West,265,0.0,0.0,73,0.00,SCT,OVC,0.04,WeatherDisplay:10.37,2013-06-13 23:03:00,
2013-06-13 19:08:00,82.2,72.7,29.93,West,265,5.8,0.0,73,0.00,SCT,OVC,0.04,WeatherDisplay:10.37,2013-06-13 23:08:00,
2013-06-13 19:13:00,82.0,72.5,29.93,West,265,1.2,0.0,73,0.00,SCT,OVC,0.04,WeatherDisplay:10.37,2013-06-13 23:13:00,
2013-06-13 19:18:00,81.8,72.7,29.93,West,265,4.6,0.0,74,0.00,SCT,OVC,0.04,WeatherDisplay:10.37,2013-06-13 23:18:00,
2013-06-13 19:23:00,81.6,72.5,29.93,West,265,0.0,0.0,74,0.00,SCT,OVC,0.04,WeatherDisplay:10.37,2013-06-13 23:23:00,
2013-06-13 19:28:00,81.6,72.5,29.93,West,265,0.0,0.0,74,0.00,SCT,OVC,0.04,WeatherDisplay:10.37,2013-06-13 23:28:00,
2013-06-13 19:33:00,81.4,72.7,29.92,West,265,0.0,0.0,75,0.00,SCT,OVC,0.04,WeatherDisplay:10.37,2013-06-13 23:33:00,
2013-06-13 19:38:00,81.4,72.7,29.92,West,265,0.0,0.0,75,0.00,SCT,OVC,0.04,WeatherDisplay:10.37,2013-06-13 23:38:00,
2013-06-13 19:43:00,81.1,72.4,29.92,West,265,0.0,0.0,75,0.00,SCT,OVC,0.04,WeatherDisplay:10.37,2013-06-13 23:43:00,
2013-06-13 19:48:00,80.9,72.2,29.92,West,265,0.0,0.0,75,0.00,SCT,OVC,0.04,WeatherDisplay:10.37,2013-06-13 23:48:00,
2013-06-13 19:53:00,80.9,72.2,29.92,West,265,0.0,0.0,75,0.00,SCT,OVC,0.04,WeatherDisplay:10.37,2013-06-13 23:53:00,
2013-06-13 19:58:00,80.7,72.4,29.92,West,265,0.0,0.0,76,0.00,SCT,OVC,0.04,WeatherDisplay:10.37,2013-06-13 23:58:00,
2013-06-13 20:03:00,80.9,73.0,29.92,West,265,0.0,0.0,77,0.00,SCT,OVC,0.04,WeatherDisplay:10.37,2013-06-14 00:03:00,
2013-06-13 20:08:00,80.7,72.8,29.92,West,265,0.0,0.0,77,0.00,SCT,OVC,0.04,WeatherDisplay:10.37,2013-06-14 00:08:00,
2013-06-13 20:13:00,80.5,72.2,29.92,West,264,1.2,0.0,76,0.00,SCT,OVC,0.04,WeatherDisplay:10.37,2013-06-14 00:13:00,
2013-06-13 20:18:00,80.3,72.8,29.93,West,264,0.0,0.0,78,0.00,SCT,OVC,0.04,WeatherDisplay:10.37,2013-06-14 00:18:00,
2013-06-13 20:23:00,80.1,72.6,29.93,West,264,0.0,0.3,78,0.00,SCT,OVC,0.04,WeatherDisplay:10.37,2013-06-14 00:23:00,
2013-06-13 20:28:00,79.9,72.4,29.93,West,264,0.0,0.0,78,0.00,SCT,OVC,0.04,WeatherDisplay:10.37,2013-06-14 00:28:00,
2013-06-13 20:33:00,79.9,72.4,29.92,West,264,0.0,0.0,78,0.00,SCT,OVC,0.04,WeatherDisplay:10.37,2013-06-14 00:33:00,
2013-06-13 20:38:00,79.8,72.3,29.92,West,264,0.0,0.0,78,0.00,SCT,OVC,0.04,WeatherDisplay:10.37,2013-06-14 00:38:00,
2013-06-13 20:44:00,79.8,72.7,29.92,West,264,0.0,0.0,79,0.00,SCT,OVC,0.04,WeatherDisplay:10.37,2013-06-14 00:44:00,
2013-06-13 20:49:00,79.6,72.5,29.93,West,264,0.0,0.0,79,0.00,SCT,OVC,0.04,WeatherDisplay:10.37,2013-06-14 00:49:00,
2013-06-13 20:54:00,79.4,72.7,29.93,West,264,0.0,0.0,80,0.00,SCT,OVC,0.04,WeatherDisplay:10.37,2013-06-14 00:54:00,
2013-06-13 20:59:00,79.4,72.7,29.93,West,264,0.0,0.0,80,0.00,SCT,OVC,0.04,WeatherDisplay:10.37,2013-06-14 00:59:00,
2013-06-13 21:04:00,79.4,72.7,29.94,West,264,0.0,0.0,80,0.00,SCT,OVC,0.04,WeatherDisplay:10.37,2013-06-14 01:04:00,
2013-06-13 21:09:00,79.2,72.9,29.94,West,264,0.0,0.0,81,0.00,SCT,OVC,0.04,WeatherDisplay:10.37,2013-06-14 01:09:00,
2013-06-13 21:14:00,79.0,72.7,29.94,West,264,0.0,0.0,81,0.00,SCT,OVC,0.04,WeatherDisplay:10.37,2013-06-14 01:14:00,
2013-06-13 21:19:00,79.0,73.0,29.94,West,264,0.0,0.0,82,0.00,SCT,OVC,0.04,WeatherDisplay:10.37,2013-06-14 01:19:00,
2013-06-13 21:24:00,78.8,72.5,29.94,West,264,0.0,0.0,81,0.00,SCT,OVC,0.04,WeatherDisplay:10.37,2013-06-14 01:24:00,
2013-06-13 21:29:00,78.6,72.3,29.94,West,264,0.0,0.0,81,0.00,SCT,OVC,0.04,WeatherDisplay:10.37,2013-06-14 01:29:00,
2013-06-13 21:34:00,78.6,71.9,29.95,West,264,0.0,0.0,80,0.00,SCT,OVC,0.04,WeatherDisplay:10.37,2013-06-14 01:34:00,
2013-06-13 21:39:00,78.5,71.4,29.95,West,264,0.0,0.0,79,0.00,SCT,OVC,0.04,WeatherDisplay:10.37,2013-06-14 01:39:00,
2013-06-13 21:44:00,78.5,71.4,29.94,West,264,0.0,0.0,79,0.00,SCT,OVC,0.04,WeatherDisplay:10.37,2013-06-14 01:44:00,
2013-06-13 21:49:00,78.5,71.1,29.94,West,264,0.0,0.0,78,0.00,SCT,OVC,0.04,WeatherDisplay:10.37,2013-06-14 01:49:00,
2013-06-13 21:54:00,78.5,71.1,29.94,West,264,0.0,0.0,78,0.00,SCT,OVC,0.04,WeatherDisplay:10.37,2013-06-14 01:54:00,
2013-06-13 21:59:00,78.6,71.9,29.94,West,264,0.0,0.0,80,0.00,SCT,OVC,0.04,WeatherDisplay:10.37,2013-06-14 01:59:00,
2013-06-13 22:04:00,78.5,71.8,29.94,West,264,0.0,0.0,80,0.00,SCT,OVC,0.04,WeatherDisplay:10.37,2013-06-14 02:04:00,
2013-06-13 22:09:00,78.3,71.6,29.94,West,264,0.0,0.0,80,0.00,SCT,OVC,0.04,WeatherDisplay:10.37,2013-06-14 02:09:00,
2013-06-13 22:14:00,78.1,71.4,29.94,West,264,0.0,0.0,80,0.00,SCT,OVC,0.04,WeatherDisplay:10.37,2013-06-14 02:14:00,
2013-06-13 22:19:00,77.7,70.7,29.94,West,264,0.0,0.0,79,0.00,SCT,OVC,0.04,WeatherDisplay:10.37,2013-06-14 02:19:00,
2013-06-13 22:24:00,77.6,70.6,29.94,West,264,0.0,0.0,79,0.00,SCT,OVC,0.04,WeatherDisplay:10.37,2013-06-14 02:24:00,
2013-06-13 22:29:00,77.6,70.9,29.94,West,264,0.0,0.0,80,0.00,SCT,OVC,0.04,WeatherDisplay:10.37,2013-06-14 02:29:00,
2013-06-13 22:34:00,77.4,70.4,29.94,West,264,0.0,0.0,79,0.00,SCT,OVC,0.04,WeatherDisplay:10.37,2013-06-14 02:34:00,
2013-06-13 22:39:00,77.2,70.5,29.94,West,264,0.0,0.0,80,0.00,SCT,OVC,0.04,WeatherDisplay:10.37,2013-06-14 02:39:00,
2013-06-13 22:44:00,77.2,70.9,29.94,West,264,0.0,0.0,81,0.00,SCT,OVC,0.04,WeatherDisplay:10.37,2013-06-14 02:44:00,
2013-06-13 22:49:00,77.0,69.6,29.94,West,264,0.0,0.0,78,0.00,SCT,OVC,0.04,WeatherDisplay:10.37,2013-06-14 02:49:00,
2013-06-13 22:54:00,77.0,69.6,29.94,West,264,0.0,0.0,78,0.00,SCT,OVC,0.04,WeatherDisplay:10.37,2013-06-14 02:54:00,
2013-06-13 22:59:00,77.2,70.5,29.93,West,264,0.0,0.0,80,0.00,SCT,OVC,0.04,WeatherDisplay:10.37,2013-06-14 02:59:00,
2013-06-13 23:04:00,77.4,71.1,29.93,West,264,0.0,0.0,81,0.00,SCT,OVC,0.04,WeatherDisplay:10.37,2013-06-14 03:04:00,
2013-06-13 23:09:00,77.2,70.9,29.93,West,264,0.0,0.0,81,0.00,SCT,OVC,0.04,WeatherDisplay:10.37,2013-06-14 03:09:00,
2013-06-13 23:14:00,77.0,70.7,29.94,West,264,0.0,0.0,81,0.00,SCT,OVC,0.04,WeatherDisplay:10.37,2013-06-14 03:14:00,
2013-06-13 23:19:00,76.8,70.2,29.94,West,264,0.0,0.0,80,0.00,SCT,OVC,0.04,WeatherDisplay:10.37,2013-06-14 03:19:00,
2013-06-13 23:24:00,76.7,70.1,29.94,West,264,0.0,0.0,80,0.00,SCT,OVC,0.04,WeatherDisplay:10.37,2013-06-14 03:24:00,
2013-06-13 23:29:00,76.5,70.2,29.94,West,264,0.0,0.0,81,0.00,SCT,OVC,0.04,WeatherDisplay:10.37,2013-06-14 03:29:00,
2013-06-13 23:34:00,76.3,70.0,29.94,West,264,0.0,0.0,81,0.00,SCT,OVC,0.04,WeatherDisplay:10.37,2013-06-14 03:34:00,
2013-06-13 23:39:00,76.8,71.6,29.94,West,264,0.0,0.0,84,0.00,SCT,OVC,0.04,WeatherDisplay:10.37,2013-06-14 03:39:00,
2013-06-13 23:44:00,76.7,71.5,29.93,West,264,0.0,0.0,84,0.00,SCT,OVC,0.04,WeatherDisplay:10.37,2013-06-14 03:44:00,
2013-06-13 23:49:00,76.7,71.5,29.93,West,264,0.0,0.0,84,0.00,SCT,OVC,0.04,WeatherDisplay:10.37,2013-06-14 03:49:00,
2013-06-13 23:54:00,76.5,71.3,29.93,West,264,0.0,0.0,84,0.00,SCT,OVC,0.04,WeatherDisplay:10.37,2013-06-14 03:54:00,
2013-06-13 23:59:00,76.5,71.3,29.94,West,264,0.0,0.0,84,0.00,SCT,OVC,0.04,WeatherDisplay:10.37,2013-06-14 03:59:00,